Year,Month,Day,Hour,Minute,Value (Times are PST for insolation in W/m^2)
2017,05,13,00,00,0.00
2017,05,13,00,01,0.00
2017,05,13,00,02,0.00
2017,05,13,00,03,0.00
2017,05,13,00,04,0.00
2017,05,13,00,05,0.00
2017,05,13,00,06,0.00
2017,05,13,00,07,0.00
2017,05,13,00,08,0.00
2017,05,13,00,09,0.00
2017,05,13,00,10,0.00
2017,05,13,00,11,0.00
2017,05,13,00,12,0.00
2017,05,13,00,13,0.00
2017,05,13,00,14,0.00
2017,05,13,00,15,0.00
2017,05,13,00,16,0.00
2017,05,13,00,17,0.00
2017,05,13,00,18,0.00
2017,05,13,00,19,0.00
2017,05,13,00,20,0.00
2017,05,13,00,21,0.00
2017,05,13,00,22,0.00
2017,05,13,00,23,0.00
2017,05,13,00,24,0.00
2017,05,13,00,25,0.00
2017,05,13,00,26,0.00
2017,05,13,00,27,0.00
2017,05,13,00,28,0.00
2017,05,13,00,29,0.00
2017,05,13,00,30,0.00
2017,05,13,00,31,0.00
2017,05,13,00,32,0.00
2017,05,13,00,33,0.00
2017,05,13,00,34,0.00
2017,05,13,00,35,0.00
2017,05,13,00,36,0.00
2017,05,13,00,37,0.00
2017,05,13,00,38,0.00
2017,05,13,00,39,0.00
2017,05,13,00,40,0.00
2017,05,13,00,41,0.00
2017,05,13,00,42,0.00
2017,05,13,00,43,0.00
2017,05,13,00,44,0.00
2017,05,13,00,45,0.00
2017,05,13,00,46,0.00
2017,05,13,00,47,0.00
2017,05,13,00,48,0.00
2017,05,13,00,49,0.00
2017,05,13,00,50,0.00
2017,05,13,00,51,0.00
2017,05,13,00,52,0.00
2017,05,13,00,53,0.00
2017,05,13,00,54,0.00
2017,05,13,00,55,0.00
2017,05,13,00,56,0.00
2017,05,13,00,57,0.00
2017,05,13,00,58,0.00
2017,05,13,00,59,0.00
2017,05,13,01,00,0.00
2017,05,13,01,01,0.00
2017,05,13,01,02,0.00
2017,05,13,01,03,0.00
2017,05,13,01,04,0.00
2017,05,13,01,05,0.00
2017,05,13,01,06,0.00
2017,05,13,01,07,0.00
2017,05,13,01,08,0.00
2017,05,13,01,09,0.00
2017,05,13,01,10,0.00
2017,05,13,01,11,0.00
2017,05,13,01,12,0.00
2017,05,13,01,13,0.00
2017,05,13,01,14,0.00
2017,05,13,01,15,0.00
2017,05,13,01,16,0.00
2017,05,13,01,17,0.00
2017,05,13,01,18,0.00
2017,05,13,01,19,0.00
2017,05,13,01,20,0.00
2017,05,13,01,21,0.00
2017,05,13,01,22,0.00
2017,05,13,01,23,0.00
2017,05,13,01,24,0.00
2017,05,13,01,25,0.00
2017,05,13,01,26,0.00
2017,05,13,01,27,0.00
2017,05,13,01,28,0.00
2017,05,13,01,29,0.00
2017,05,13,01,30,0.00
2017,05,13,01,31,0.00
2017,05,13,01,32,0.00
2017,05,13,01,33,0.00
2017,05,13,01,34,0.00
2017,05,13,01,35,0.00
2017,05,13,01,36,0.00
2017,05,13,01,37,0.00
2017,05,13,01,38,0.00
2017,05,13,01,39,0.00
2017,05,13,01,40,0.00
2017,05,13,01,41,0.00
2017,05,13,01,42,0.00
2017,05,13,01,43,0.00
2017,05,13,01,44,0.00
2017,05,13,01,45,0.00
2017,05,13,01,46,0.00
2017,05,13,01,47,0.00
2017,05,13,01,48,0.00
2017,05,13,01,49,0.00
2017,05,13,01,50,0.00
2017,05,13,01,51,0.00
2017,05,13,01,52,0.00
2017,05,13,01,53,0.00
2017,05,13,01,54,0.00
2017,05,13,01,55,0.00
2017,05,13,01,56,0.00
2017,05,13,01,57,0.00
2017,05,13,01,58,0.00
2017,05,13,01,59,0.00
2017,05,13,02,00,0.00
2017,05,13,02,01,0.00
2017,05,13,02,02,0.00
2017,05,13,02,03,0.00
2017,05,13,02,04,0.00
2017,05,13,02,05,0.00
2017,05,13,02,06,0.00
2017,05,13,02,07,0.00
2017,05,13,02,08,0.00
2017,05,13,02,09,0.00
2017,05,13,02,10,0.00
2017,05,13,02,11,0.00
2017,05,13,02,12,0.00
2017,05,13,02,13,0.00
2017,05,13,02,14,0.00
2017,05,13,02,15,0.00
2017,05,13,02,16,0.00
2017,05,13,02,17,0.00
2017,05,13,02,18,0.00
2017,05,13,02,19,0.00
2017,05,13,02,20,0.00
2017,05,13,02,21,0.00
2017,05,13,02,22,0.00
2017,05,13,02,23,0.00
2017,05,13,02,24,0.00
2017,05,13,02,25,0.00
2017,05,13,02,26,0.00
2017,05,13,02,27,0.00
2017,05,13,02,28,0.00
2017,05,13,02,29,0.00
2017,05,13,02,30,0.00
2017,05,13,02,31,0.00
2017,05,13,02,32,0.00
2017,05,13,02,33,0.00
2017,05,13,02,34,0.00
2017,05,13,02,35,0.00
2017,05,13,02,36,0.00
2017,05,13,02,37,0.00
2017,05,13,02,38,0.00
2017,05,13,02,39,0.00
2017,05,13,02,40,0.00
2017,05,13,02,41,0.00
2017,05,13,02,42,0.00
2017,05,13,02,43,0.00
2017,05,13,02,44,0.00
2017,05,13,02,45,0.00
2017,05,13,02,46,0.00
2017,05,13,02,47,0.00
2017,05,13,02,48,0.00
2017,05,13,02,49,0.00
2017,05,13,02,50,0.00
2017,05,13,02,51,0.00
2017,05,13,02,52,0.00
2017,05,13,02,53,0.00
2017,05,13,02,54,0.00
2017,05,13,02,55,0.00
2017,05,13,02,56,0.00
2017,05,13,02,57,0.00
2017,05,13,02,58,0.00
2017,05,13,02,59,0.00
2017,05,13,03,00,0.00
2017,05,13,03,01,0.00
2017,05,13,03,02,0.00
2017,05,13,03,03,0.00
2017,05,13,03,04,0.00
2017,05,13,03,05,0.00
2017,05,13,03,06,0.00
2017,05,13,03,07,0.00
2017,05,13,03,08,0.00
2017,05,13,03,09,0.00
2017,05,13,03,10,0.00
2017,05,13,03,11,0.00
2017,05,13,03,12,0.00
2017,05,13,03,13,0.00
2017,05,13,03,14,0.00
2017,05,13,03,15,0.00
2017,05,13,03,16,0.00
2017,05,13,03,17,0.00
2017,05,13,03,18,0.00
2017,05,13,03,19,0.00
2017,05,13,03,20,0.00
2017,05,13,03,21,0.00
2017,05,13,03,22,0.00
2017,05,13,03,23,0.00
2017,05,13,03,24,0.00
2017,05,13,03,25,0.00
2017,05,13,03,26,0.00
2017,05,13,03,27,0.00
2017,05,13,03,28,0.00
2017,05,13,03,29,0.00
2017,05,13,03,30,0.00
2017,05,13,03,31,0.00
2017,05,13,03,32,0.00
2017,05,13,03,33,0.00
2017,05,13,03,34,0.00
2017,05,13,03,35,0.00
2017,05,13,03,36,0.00
2017,05,13,03,37,0.00
2017,05,13,03,38,0.00
2017,05,13,03,39,0.00
2017,05,13,03,40,0.00
2017,05,13,03,41,0.00
2017,05,13,03,42,0.00
2017,05,13,03,43,0.00
2017,05,13,03,44,0.00
2017,05,13,03,45,0.00
2017,05,13,03,46,0.00
2017,05,13,03,47,0.00
2017,05,13,03,48,0.00
2017,05,13,03,49,0.00
2017,05,13,03,50,0.00
2017,05,13,03,51,0.00
2017,05,13,03,52,0.00
2017,05,13,03,53,0.00
2017,05,13,03,54,0.00
2017,05,13,03,55,0.00
2017,05,13,03,56,0.00
2017,05,13,03,57,0.00
2017,05,13,03,58,0.00
2017,05,13,03,59,0.00
2017,05,13,04,00,0.00
2017,05,13,04,01,0.00
2017,05,13,04,02,0.00
2017,05,13,04,03,0.00
2017,05,13,04,04,0.00
2017,05,13,04,05,0.00
2017,05,13,04,06,0.00
2017,05,13,04,07,0.00
2017,05,13,04,08,0.00
2017,05,13,04,09,0.00
2017,05,13,04,10,0.00
2017,05,13,04,11,0.00
2017,05,13,04,12,0.00
2017,05,13,04,13,0.00
2017,05,13,04,14,0.00
2017,05,13,04,15,0.00
2017,05,13,04,16,0.00
2017,05,13,04,17,0.00
2017,05,13,04,18,0.00
2017,05,13,04,19,0.00
2017,05,13,04,20,0.00
2017,05,13,04,21,0.00
2017,05,13,04,22,0.00
2017,05,13,04,23,0.00
2017,05,13,04,24,0.00
2017,05,13,04,25,0.00
2017,05,13,04,26,0.00
2017,05,13,04,27,0.00
2017,05,13,04,28,0.00
2017,05,13,04,29,0.00
2017,05,13,04,30,0.00
2017,05,13,04,31,0.00
2017,05,13,04,32,0.00
2017,05,13,04,33,0.00
2017,05,13,04,34,0.00
2017,05,13,04,35,0.00
2017,05,13,04,36,0.00
2017,05,13,04,37,0.00
2017,05,13,04,38,0.00
2017,05,13,04,39,0.00
2017,05,13,04,40,0.00
2017,05,13,04,41,0.00
2017,05,13,04,42,0.00
2017,05,13,04,43,0.00
2017,05,13,04,44,0.00
2017,05,13,04,45,0.00
2017,05,13,04,46,0.00
2017,05,13,04,47,0.00
2017,05,13,04,48,0.00
2017,05,13,04,49,0.00
2017,05,13,04,50,0.00
2017,05,13,04,51,0.00
2017,05,13,04,52,0.00
2017,05,13,04,53,0.00
2017,05,13,04,54,0.00
2017,05,13,04,55,0.00
2017,05,13,04,56,0.00
2017,05,13,04,57,0.00
2017,05,13,04,58,0.00
2017,05,13,04,59,0.00
2017,05,13,05,00,0.00
2017,05,13,05,01,0.00
2017,05,13,05,02,0.00
2017,05,13,05,03,0.00
2017,05,13,05,04,0.00
2017,05,13,05,05,0.00
2017,05,13,05,06,0.00
2017,05,13,05,07,0.00
2017,05,13,05,08,0.00
2017,05,13,05,09,0.00
2017,05,13,05,10,0.00
2017,05,13,05,11,0.00
2017,05,13,05,12,0.00
2017,05,13,05,13,0.00
2017,05,13,05,14,0.00
2017,05,13,05,15,0.00
2017,05,13,05,16,0.00
2017,05,13,05,17,0.00
2017,05,13,05,18,0.00
2017,05,13,05,19,0.00
2017,05,13,05,20,0.00
2017,05,13,05,21,0.00
2017,05,13,05,22,0.00
2017,05,13,05,23,0.00
2017,05,13,05,24,0.00
2017,05,13,05,25,0.00
2017,05,13,05,26,0.00
2017,05,13,05,27,0.00
2017,05,13,05,28,0.00
2017,05,13,05,29,0.00
2017,05,13,05,30,0.00
2017,05,13,05,31,0.00
2017,05,13,05,32,0.00
2017,05,13,05,33,0.00
2017,05,13,05,34,0.00
2017,05,13,05,35,0.00
2017,05,13,05,36,0.00
2017,05,13,05,37,0.00
2017,05,13,05,38,0.00
2017,05,13,05,39,0.00
2017,05,13,05,40,0.00
2017,05,13,05,41,0.00
2017,05,13,05,42,0.00
2017,05,13,05,43,0.00
2017,05,13,05,44,0.00
2017,05,13,05,45,0.00
2017,05,13,05,46,0.00
2017,05,13,05,47,0.00
2017,05,13,05,48,0.00
2017,05,13,05,49,0.00
2017,05,13,05,50,0.00
2017,05,13,05,51,0.00
2017,05,13,05,52,0.00
2017,05,13,05,53,0.00
2017,05,13,05,54,0.00
2017,05,13,05,55,0.00
2017,05,13,05,56,0.00
2017,05,13,05,57,0.00
2017,05,13,05,58,0.00
2017,05,13,05,59,0.00
2017,05,13,06,00,3.90
2017,05,13,06,01,5.00
2017,05,13,06,02,5.00
2017,05,13,06,03,5.30
2017,05,13,06,04,7.00
2017,05,13,06,05,7.00
2017,05,13,06,06,7.00
2017,05,13,06,07,6.10
2017,05,13,06,08,5.00
2017,05,13,06,09,5.00
2017,05,13,06,10,5.00
2017,05,13,06,11,5.00
2017,05,13,06,12,5.00
2017,05,13,06,13,5.00
2017,05,13,06,14,5.00
2017,05,13,06,15,5.50
2017,05,13,06,16,7.00
2017,05,13,06,17,7.00
2017,05,13,06,18,7.00
2017,05,13,06,19,7.00
2017,05,13,06,20,8.30
2017,05,13,06,21,9.00
2017,05,13,06,22,9.00
2017,05,13,06,23,9.00
2017,05,13,06,24,9.00
2017,05,13,06,25,9.00
2017,05,13,06,26,9.00
2017,05,13,06,27,9.00
2017,05,13,06,28,9.00
2017,05,13,06,29,9.00
2017,05,13,06,30,9.00
2017,05,13,06,31,9.00
2017,05,13,06,32,9.00
2017,05,13,06,33,9.00
2017,05,13,06,34,9.00
2017,05,13,06,35,9.00
2017,05,13,06,36,8.70
2017,05,13,06,37,7.00
2017,05,13,06,38,7.60
2017,05,13,06,39,9.00
2017,05,13,06,40,9.00
2017,05,13,06,41,10.10
2017,05,13,06,42,11.00
2017,05,13,06,43,11.00
2017,05,13,06,44,11.80
2017,05,13,06,45,12.00
2017,05,13,06,46,14.00
2017,05,13,06,47,16.30
2017,05,13,06,48,18.00
2017,05,13,06,49,18.30
2017,05,13,06,50,19.70
2017,05,13,06,51,21.00
2017,05,13,06,52,21.00
2017,05,13,06,53,19.70
2017,05,13,06,54,16.90
2017,05,13,06,55,14.50
2017,05,13,06,56,12.30
2017,05,13,06,57,12.10
2017,05,13,06,58,14.30
2017,05,13,06,59,16.50
2017,05,13,07,00,18.00
2017,05,13,07,01,18.40
2017,05,13,07,02,19.00
2017,05,13,07,03,20.10
2017,05,13,07,04,23.50
2017,05,13,07,05,28.60
2017,05,13,07,06,32.40
2017,05,13,07,07,38.20
2017,05,13,07,08,44.00
2017,05,13,07,09,49.70
2017,05,13,07,10,54.50
2017,05,13,07,11,56.00
2017,05,13,07,12,55.20
2017,05,13,07,13,53.50
2017,05,13,07,14,53.00
2017,05,13,07,15,53.00
2017,05,13,07,16,53.70
2017,05,13,07,17,55.60
2017,05,13,07,18,56.00
2017,05,13,07,19,57.90
2017,05,13,07,20,58.30
2017,05,13,07,21,60.50
2017,05,13,07,22,63.00
2017,05,13,07,23,65.00
2017,05,13,07,24,65.00
2017,05,13,07,25,63.40
2017,05,13,07,26,60.70
2017,05,13,07,27,57.10
2017,05,13,07,28,57.60
2017,05,13,07,29,58.00
2017,05,13,07,30,60.00
2017,05,13,07,31,62.10
2017,05,13,07,32,63.90
2017,05,13,07,33,67.60
2017,05,13,07,34,69.40
2017,05,13,07,35,71.80
2017,05,13,07,36,75.10
2017,05,13,07,37,77.90
2017,05,13,07,38,81.90
2017,05,13,07,39,87.00
2017,05,13,07,40,89.70
2017,05,13,07,41,91.30
2017,05,13,07,42,98.00
2017,05,13,07,43,98.90
2017,05,13,07,44,103.00
2017,05,13,07,45,105.80
2017,05,13,07,46,106.10
2017,05,13,07,47,103.40
2017,05,13,07,48,98.80
2017,05,13,07,49,92.60
2017,05,13,07,50,91.00
2017,05,13,07,51,90.10
2017,05,13,07,52,90.00
2017,05,13,07,53,91.00
2017,05,13,07,54,91.00
2017,05,13,07,55,91.00
2017,05,13,07,56,92.50
2017,05,13,07,57,96.40
2017,05,13,07,58,99.10
2017,05,13,07,59,101.30
2017,05,13,08,00,110.00
2017,05,13,08,01,118.70
2017,05,13,08,02,124.50
2017,05,13,08,03,128.20
2017,05,13,08,04,135.00
2017,05,13,08,05,134.30
2017,05,13,08,06,130.70
2017,05,13,08,07,127.60
2017,05,13,08,08,127.00
2017,05,13,08,09,124.80
2017,05,13,08,10,123.00
2017,05,13,08,11,119.40
2017,05,13,08,12,113.90
2017,05,13,08,13,113.00
2017,05,13,08,14,118.00
2017,05,13,08,15,124.20
2017,05,13,08,16,134.30
2017,05,13,08,17,141.70
2017,05,13,08,18,136.80
2017,05,13,08,19,125.90
2017,05,13,08,20,118.30
2017,05,13,08,21,116.00
2017,05,13,08,22,117.50
2017,05,13,08,23,120.40
2017,05,13,08,24,122.70
2017,05,13,08,25,121.10
2017,05,13,08,26,121.50
2017,05,13,08,27,127.00
2017,05,13,08,28,137.20
2017,05,13,08,29,148.20
2017,05,13,08,30,160.50
2017,05,13,08,31,169.70
2017,05,13,08,32,173.30
2017,05,13,08,33,174.00
2017,05,13,08,34,175.60
2017,05,13,08,35,174.30
2017,05,13,08,36,171.30
2017,05,13,08,37,175.90
2017,05,13,08,38,190.00
2017,05,13,08,39,197.60
2017,05,13,08,40,199.40
2017,05,13,08,41,197.70
2017,05,13,08,42,193.40
2017,05,13,08,43,192.60
2017,05,13,08,44,190.80
2017,05,13,08,45,181.10
2017,05,13,08,46,174.70
2017,05,13,08,47,176.50
2017,05,13,08,48,189.60
2017,05,13,08,49,203.20
2017,05,13,08,50,216.90
2017,05,13,08,51,221.90
2017,05,13,08,52,217.30
2017,05,13,08,53,214.00
2017,05,13,08,54,218.50
2017,05,13,08,55,226.80
2017,05,13,08,56,237.10
2017,05,13,08,57,254.50
2017,05,13,08,58,273.00
2017,05,13,08,59,311.90
2017,05,13,09,00,338.20
2017,05,13,09,01,346.30
2017,05,13,09,02,294.10
2017,05,13,09,03,264.40
2017,05,13,09,04,234.40
2017,05,13,09,05,227.50
2017,05,13,09,06,227.80
2017,05,13,09,07,219.70
2017,05,13,09,08,213.70
2017,05,13,09,09,198.80
2017,05,13,09,10,178.40
2017,05,13,09,11,158.80
2017,05,13,09,12,144.50
2017,05,13,09,13,133.20
2017,05,13,09,14,122.00
2017,05,13,09,15,108.40
2017,05,13,09,16,94.40
2017,05,13,09,17,83.50
2017,05,13,09,18,77.70
2017,05,13,09,19,76.10
2017,05,13,09,20,72.00
2017,05,13,09,21,66.50
2017,05,13,09,22,62.80
2017,05,13,09,23,61.40
2017,05,13,09,24,58.50
2017,05,13,09,25,55.10
2017,05,13,09,26,52.40
2017,05,13,09,27,48.50
2017,05,13,09,28,46.30
2017,05,13,09,29,44.40
2017,05,13,09,30,42.20
2017,05,13,09,31,41.90
2017,05,13,09,32,39.90
2017,05,13,09,33,38.50
2017,05,13,09,34,36.40
2017,05,13,09,35,35.00
2017,05,13,09,36,34.10
2017,05,13,09,37,32.50
2017,05,13,09,38,32.00
2017,05,13,09,39,30.50
2017,05,13,09,40,30.00
2017,05,13,09,41,28.20
2017,05,13,09,42,27.90
2017,05,13,09,43,26.00
2017,05,13,09,44,26.00
2017,05,13,09,45,26.00
2017,05,13,09,46,25.60
2017,05,13,09,47,25.00
2017,05,13,09,48,25.00
2017,05,13,09,49,25.00
2017,05,13,09,50,23.50
2017,05,13,09,51,23.00
2017,05,13,09,52,23.00
2017,05,13,09,53,23.00
2017,05,13,09,54,23.30
2017,05,13,09,55,25.00
2017,05,13,09,56,25.30
2017,05,13,09,57,26.00
2017,05,13,09,58,26.90
2017,05,13,09,59,28.00
2017,05,13,10,00,28.00
2017,05,13,10,01,28.00
2017,05,13,10,02,28.00
2017,05,13,10,03,29.80
2017,05,13,10,04,30.10
2017,05,13,10,05,32.00
2017,05,13,10,06,32.20
2017,05,13,10,07,33.60
2017,05,13,10,08,35.80
2017,05,13,10,09,37.90
2017,05,13,10,10,39.00
2017,05,13,10,11,39.60
2017,05,13,10,12,39.30
2017,05,13,10,13,39.00
2017,05,13,10,14,37.30
2017,05,13,10,15,37.10
2017,05,13,10,16,39.10
2017,05,13,10,17,40.00
2017,05,13,10,18,40.00
2017,05,13,10,19,40.80
2017,05,13,10,20,42.00
2017,05,13,10,21,42.00
2017,05,13,10,22,42.00
2017,05,13,10,23,42.00
2017,05,13,10,24,40.50
2017,05,13,10,25,41.70
2017,05,13,10,26,42.10
2017,05,13,10,27,44.30
2017,05,13,10,28,46.00
2017,05,13,10,29,46.30
2017,05,13,10,30,47.80
2017,05,13,10,31,50.90
2017,05,13,10,32,55.60
2017,05,13,10,33,63.70
2017,05,13,10,34,73.40
2017,05,13,10,35,83.70
2017,05,13,10,36,96.40
2017,05,13,10,37,114.20
2017,05,13,10,38,137.90
2017,05,13,10,39,159.60
2017,05,13,10,40,175.70
2017,05,13,10,41,186.80
2017,05,13,10,42,193.20
2017,05,13,10,43,200.80
2017,05,13,10,44,201.50
2017,05,13,10,45,194.90
2017,05,13,10,46,184.80
2017,05,13,10,47,172.10
2017,05,13,10,48,162.20
2017,05,13,10,49,158.30
2017,05,13,10,50,163.60
2017,05,13,10,51,183.40
2017,05,13,10,52,212.60
2017,05,13,10,53,241.40
2017,05,13,10,54,274.10
2017,05,13,10,55,303.40
2017,05,13,10,56,346.60
2017,05,13,10,57,328.90
2017,05,13,10,58,303.00
2017,05,13,10,59,285.00
2017,05,13,11,00,268.50
2017,05,13,11,01,264.80
2017,05,13,11,02,266.20
2017,05,13,11,03,272.10
2017,05,13,11,04,274.90
2017,05,13,11,05,274.90
2017,05,13,11,06,269.50
2017,05,13,11,07,260.50
2017,05,13,11,08,251.50
2017,05,13,11,09,243.70
2017,05,13,11,10,236.20
2017,05,13,11,11,233.50
2017,05,13,11,12,229.80
2017,05,13,11,13,229.00
2017,05,13,11,14,230.10
2017,05,13,11,15,234.30
2017,05,13,11,16,244.10
2017,05,13,11,17,259.50
2017,05,13,11,18,276.60
2017,05,13,11,19,294.00
2017,05,13,11,20,310.90
2017,05,13,11,21,327.50
2017,05,13,11,22,342.00
2017,05,13,11,23,367.00
2017,05,13,11,24,367.00
2017,05,13,11,25,367.00
2017,05,13,11,26,367.00
2017,05,13,11,27,352.80
2017,05,13,11,28,341.00
2017,05,13,11,29,339.50
2017,05,13,11,30,335.00
2017,05,13,11,31,324.50
2017,05,13,11,32,318.30
2017,05,13,11,33,321.20
2017,05,13,11,34,329.70
2017,05,13,11,35,329.10
2017,05,13,11,36,326.40
2017,05,13,11,37,332.00
2017,05,13,11,38,332.00
2017,05,13,11,39,332.00
2017,05,13,11,40,332.00
2017,05,13,11,41,332.00
2017,05,13,11,42,332.00
2017,05,13,11,43,332.00
2017,05,13,11,44,402.50
2017,05,13,11,45,849.00
2017,05,13,11,46,690.20
2017,05,13,11,47,345.80
2017,05,13,11,48,341.70
2017,05,13,11,49,335.20
2017,05,13,11,50,303.50
2017,05,13,11,51,276.20
2017,05,13,11,52,263.70
2017,05,13,11,53,257.70
2017,05,13,11,54,257.50
2017,05,13,11,55,268.60
2017,05,13,11,56,280.80
2017,05,13,11,57,288.60
2017,05,13,11,58,292.00
2017,05,13,11,59,295.20
2017,05,13,12,00,296.80
2017,05,13,12,01,295.00
2017,05,13,12,02,304.50
2017,05,13,12,03,320.30
2017,05,13,12,04,353.80
2017,05,13,12,05,357.00
2017,05,13,12,06,357.00
2017,05,13,12,07,357.00
2017,05,13,12,08,348.10
2017,05,13,12,09,318.80
2017,05,13,12,10,296.40
2017,05,13,12,11,283.10
2017,05,13,12,12,271.40
2017,05,13,12,13,255.40
2017,05,13,12,14,239.50
2017,05,13,12,15,234.30
2017,05,13,12,16,222.00
2017,05,13,12,17,231.50
2017,05,13,12,18,231.70
2017,05,13,12,19,190.10
2017,05,13,12,20,166.50
2017,05,13,12,21,163.00
2017,05,13,12,22,167.40
2017,05,13,12,23,174.20
2017,05,13,12,24,174.50
2017,05,13,12,25,177.30
2017,05,13,12,26,187.00
2017,05,13,12,27,209.20
2017,05,13,12,28,235.40
2017,05,13,12,29,247.60
2017,05,13,12,30,262.20
2017,05,13,12,31,268.90
2017,05,13,12,32,272.00
2017,05,13,12,33,274.20
2017,05,13,12,34,286.20
2017,05,13,12,35,307.30
2017,05,13,12,36,309.70
2017,05,13,12,37,306.30
2017,05,13,12,38,315.50
2017,05,13,12,39,316.50
2017,05,13,12,40,322.70
2017,05,13,12,41,336.50
2017,05,13,12,42,364.30
2017,05,13,12,43,394.00
2017,05,13,12,44,394.00
2017,05,13,12,45,903.10
2017,05,13,12,46,1162.00
2017,05,13,12,47,1163.80
2017,05,13,12,48,1138.30
2017,05,13,12,49,1107.50
2017,05,13,12,50,1078.70
2017,05,13,12,51,1064.60
2017,05,13,12,52,1003.60
2017,05,13,12,53,1045.90
2017,05,13,12,54,1092.90
2017,05,13,12,55,1083.00
2017,05,13,12,56,540.20
2017,05,13,12,57,229.30
2017,05,13,12,58,229.00
2017,05,13,12,59,236.00
2017,05,13,13,00,246.30
2017,05,13,13,01,264.30
2017,05,13,13,02,281.50
2017,05,13,13,03,298.90
2017,05,13,13,04,318.00
2017,05,13,13,05,318.00
2017,05,13,13,06,318.00
2017,05,13,13,07,318.00
2017,05,13,13,08,300.50
2017,05,13,13,09,294.00
2017,05,13,13,10,296.70
2017,05,13,13,11,304.50
2017,05,13,13,12,324.60
2017,05,13,13,13,345.80
2017,05,13,13,14,371.50
2017,05,13,13,15,428.80
2017,05,13,13,16,499.60
2017,05,13,13,17,519.00
2017,05,13,13,18,519.00
2017,05,13,13,19,1063.00
2017,05,13,13,20,1253.10
2017,05,13,13,21,1250.00
2017,05,13,13,22,1247.60
2017,05,13,13,23,1233.80
2017,05,13,13,24,1221.10
2017,05,13,13,25,1227.20
2017,05,13,13,26,1227.90
2017,05,13,13,27,1216.80
2017,05,13,13,28,1207.20
2017,05,13,13,29,1196.40
2017,05,13,13,30,1192.00
2017,05,13,13,31,1192.00
2017,05,13,13,32,1192.00
2017,05,13,13,33,305.40
2017,05,13,13,34,293.00
2017,05,13,13,35,286.50
2017,05,13,13,36,285.60
2017,05,13,13,37,284.50
2017,05,13,13,38,277.70
2017,05,13,13,39,272.90
2017,05,13,13,40,275.80
2017,05,13,13,41,283.10
2017,05,13,13,42,289.10
2017,05,13,13,43,293.60
2017,05,13,13,44,299.20
2017,05,13,13,45,309.00
2017,05,13,13,46,316.80
2017,05,13,13,47,325.20
2017,05,13,13,48,332.50
2017,05,13,13,49,337.00
2017,05,13,13,50,336.90
2017,05,13,13,51,336.00
2017,05,13,13,52,338.20
2017,05,13,13,53,343.90
2017,05,13,13,54,347.70
2017,05,13,13,55,350.30
2017,05,13,13,56,360.10
2017,05,13,13,57,372.20
2017,05,13,13,58,374.40
2017,05,13,13,59,332.20
2017,05,13,14,00,312.30
2017,05,13,14,01,303.80
2017,05,13,14,02,300.10
2017,05,13,14,03,291.00
2017,05,13,14,04,287.20
2017,05,13,14,05,287.90
2017,05,13,14,06,296.70
2017,05,13,14,07,298.50
2017,05,13,14,08,294.30
2017,05,13,14,09,290.70
2017,05,13,14,10,286.80
2017,05,13,14,11,283.10
2017,05,13,14,12,278.30
2017,05,13,14,13,273.50
2017,05,13,14,14,271.30
2017,05,13,14,15,271.80
2017,05,13,14,16,277.40
2017,05,13,14,17,288.00
2017,05,13,14,18,300.00
2017,05,13,14,19,306.70
2017,05,13,14,20,311.90
2017,05,13,14,21,321.70
2017,05,13,14,22,337.00
2017,05,13,14,23,361.60
2017,05,13,14,24,379.40
2017,05,13,14,25,399.70
2017,05,13,14,26,415.00
2017,05,13,14,27,392.60
2017,05,13,14,28,371.60
2017,05,13,14,29,363.30
2017,05,13,14,30,337.40
2017,05,13,14,31,300.00
2017,05,13,14,32,275.20
2017,05,13,14,33,255.40
2017,05,13,14,34,246.00
2017,05,13,14,35,244.70
2017,05,13,14,36,285.50
2017,05,13,14,37,301.00
2017,05,13,14,38,289.20
2017,05,13,14,39,297.70
2017,05,13,14,40,374.30
2017,05,13,14,41,332.00
2017,05,13,14,42,569.40
2017,05,13,14,43,1074.30
2017,05,13,14,44,1066.10
2017,05,13,14,45,1063.00
2017,05,13,14,46,1014.00
2017,05,13,14,47,986.00
2017,05,13,14,48,986.00
2017,05,13,14,49,909.60
2017,05,13,14,50,916.00
2017,05,13,14,51,916.00
2017,05,13,14,52,916.00
2017,05,13,14,53,916.00
2017,05,13,14,54,717.60
2017,05,13,14,55,431.00
2017,05,13,14,56,431.00
2017,05,13,14,57,751.70
2017,05,13,14,58,951.70
2017,05,13,14,59,972.70
2017,05,13,15,00,964.20
2017,05,13,15,01,970.50
2017,05,13,15,02,981.00
2017,05,13,15,03,981.00
2017,05,13,15,04,981.00
2017,05,13,15,05,747.80
2017,05,13,15,06,373.40
2017,05,13,15,07,332.00
2017,05,13,15,08,687.70
2017,05,13,15,09,885.90
2017,05,13,15,10,885.60
2017,05,13,15,11,896.90
2017,05,13,15,12,876.40
2017,05,13,15,13,883.90
2017,05,13,15,14,891.00
2017,05,13,15,15,870.50
2017,05,13,15,16,858.90
2017,05,13,15,17,853.00
2017,05,13,15,18,853.00
2017,05,13,15,19,858.10
2017,05,13,15,20,882.80
2017,05,13,15,21,883.60
2017,05,13,15,22,881.10
2017,05,13,15,23,881.00
2017,05,13,15,24,881.00
2017,05,13,15,25,878.50
2017,05,13,15,26,870.00
2017,05,13,15,27,628.20
2017,05,13,15,28,279.00
2017,05,13,15,29,279.00
2017,05,13,15,30,685.60
2017,05,13,15,31,884.50
2017,05,13,15,32,872.00
2017,05,13,15,33,466.70
2017,05,13,15,34,368.60
2017,05,13,15,35,432.80
2017,05,13,15,36,856.00
2017,05,13,15,37,811.10
2017,05,13,15,38,732.60
2017,05,13,15,39,748.00
2017,05,13,15,40,722.30
2017,05,13,15,41,705.50
2017,05,13,15,42,703.00
2017,05,13,15,43,718.50
2017,05,13,15,44,654.10
2017,05,13,15,45,647.00
2017,05,13,15,46,647.00
2017,05,13,15,47,647.00
2017,05,13,15,48,647.00
2017,05,13,15,49,647.00
2017,05,13,15,50,647.00
2017,05,13,15,51,543.40
2017,05,13,15,52,433.50
2017,05,13,15,53,422.90
2017,05,13,15,54,432.20
2017,05,13,15,55,434.00
2017,05,13,15,56,433.00
2017,05,13,15,57,413.00
2017,05,13,15,58,413.00
2017,05,13,15,59,413.00
2017,05,13,16,00,385.60
2017,05,13,16,01,347.90
2017,05,13,16,02,329.80
2017,05,13,16,03,305.40
2017,05,13,16,04,306.80
2017,05,13,16,05,338.50
2017,05,13,16,06,410.10
2017,05,13,16,07,515.10
2017,05,13,16,08,584.10
2017,05,13,16,09,647.90
2017,05,13,16,10,640.60
2017,05,13,16,11,544.00
2017,05,13,16,12,489.00
2017,05,13,16,13,526.10
2017,05,13,16,14,550.60
2017,05,13,16,15,508.50
2017,05,13,16,16,431.00
2017,05,13,16,17,405.20
2017,05,13,16,18,396.80
2017,05,13,16,19,249.50
2017,05,13,16,20,221.30
2017,05,13,16,21,194.70
2017,05,13,16,22,172.00
2017,05,13,16,23,155.30
2017,05,13,16,24,144.70
2017,05,13,16,25,141.40
2017,05,13,16,26,144.60
2017,05,13,16,27,157.50
2017,05,13,16,28,180.80
2017,05,13,16,29,223.40
2017,05,13,16,30,274.20
2017,05,13,16,31,293.20
2017,05,13,16,32,319.60
2017,05,13,16,33,362.10
2017,05,13,16,34,397.00
2017,05,13,16,35,466.30
2017,05,13,16,36,580.60
2017,05,13,16,37,614.50
2017,05,13,16,38,612.50
2017,05,13,16,39,605.60
2017,05,13,16,40,604.10
2017,05,13,16,41,624.20
2017,05,13,16,42,603.50
2017,05,13,16,43,575.10
2017,05,13,16,44,581.70
2017,05,13,16,45,585.70
2017,05,13,16,46,595.10
2017,05,13,16,47,594.70
2017,05,13,16,48,595.50
2017,05,13,16,49,562.50
2017,05,13,16,50,560.50
2017,05,13,16,51,549.20
2017,05,13,16,52,531.80
2017,05,13,16,53,526.00
2017,05,13,16,54,528.90
2017,05,13,16,55,523.70
2017,05,13,16,56,530.00
2017,05,13,16,57,518.50
2017,05,13,16,58,493.40
2017,05,13,16,59,486.50
2017,05,13,17,00,478.00
2017,05,13,17,01,469.60
2017,05,13,17,02,449.10
2017,05,13,17,03,388.90
2017,05,13,17,04,377.40
2017,05,13,17,05,382.50
2017,05,13,17,06,361.00
2017,05,13,17,07,409.70
2017,05,13,17,08,411.00
2017,05,13,17,09,409.20
2017,05,13,17,10,415.40
2017,05,13,17,11,425.20
2017,05,13,17,12,437.00
2017,05,13,17,13,437.80
2017,05,13,17,14,434.00